Location: Zürich
(47.3769°N, 8.5417°E)
Time: 09:51:16
(UTC+02:00)

ISS - Pass Details

Date: 24 May 2021
Orbit: 417 x 422 km, 51.6° (Epoch: 13 June)

Event Time Altitude Azimuth Distance (km) Brightness Sun altitude
Rises 01:23:02 0° 290° (WNW) 2,369 0.3 -21.9°
Reaches altitude 10° 01:25:20 10° 278° (W) 1,502 -0.9 -21.9°
Enters shadow 01:25:23 10° 277° (W) 1,482 -0.9 -21.9°
